This is the latest recevied weather packets stored in our database for station/object KV4OP. If no packets are shown the sender has not sent any weather packets the latest 10 day(s).
| Time | Temp. | Humidity | Pressure | Rain* | Wind** | Luminosity | Snow |
|---|---|---|---|---|---|---|---|
| 1787946950 | 32.22° C | 64% | 1016.9 hPa | 0 mm | - | - | - |
| 1787946650 | 32.22° C | 63% | 1017 hPa | 0 mm | - | - | - |
| 1787946350 | 32.78° C | 61% | 1017 hPa | 0 mm | - | - | - |
| 1787946059 | 33.33° C | 52% | 1017.1 hPa | 0 mm | - | - | - |
| 1787945750 | 33.33° C | 56% | 1017.1 hPa | 0 mm | - | - | - |
| 1787945450 | 32.78° C | 55% | 1017 hPa | 0 mm | - | - | - |
| 1787945150 | 32.78° C | 55% | 1017 hPa | 0 mm | - | - | - |
| 1787944860 | 33.89° C | 52% | 1017 hPa | 0 mm | - | - | - |
| 1787944551 | 33.89° C | 56% | 1016.9 hPa | 0 mm | - | - | - |
| 1787944250 | 33.33° C | 54% | 1016.9 hPa | 0 mm | - | - | - |
| 1787943950 | 33.33° C | 56% | 1017.1 hPa | 0 mm | - | - | - |
| 1787943659 | 32.22° C | 59% | 1017.3 hPa | 0 mm | - | - | - |
| 1787943350 | 31.67° C | 61% | 1017.4 hPa | 0 mm | - | - | - |
| 1787943051 | 31.67° C | 60% | 1017.4 hPa | 0 mm | - | - | - |
| 1787942750 | 32.22° C | 58% | 1017.5 hPa | 0 mm | - | - | - |
| 1787942466 | 32.78° C | 59% | 1017.7 hPa | 0 mm | - | - | - |
| 1787942150 | 32.22° C | 59% | 1017.7 hPa | 0 mm | - | - | - |
| 1787941850 | 32.22° C | 59% | 1017.8 hPa | 0 mm | - | - | - |
| 1787941551 | 32.22° C | 57% | 1017.8 hPa | 0 mm | - | - | - |
| 1787941261 | 32.22° C | 61% | 1017.9 hPa | 0 mm | - | - | - |
| 1787940951 | 32.22° C | 59% | 1017.9 hPa | 0 mm | - | - | - |
| 1787940650 | 32.22° C | 55% | 1017.9 hPa | 0 mm | - | - | - |
| 1787940350 | 32.22° C | 56% | 1018 hPa | 0 mm | - | - | - |
| 1787940060 | 32.22° C | 56% | 1018.1 hPa | 0 mm | - | - | - |
| 1787939750 | 32.22° C | 55% | 1018.1 hPa | 0 mm | - | - | - |
* Rain latest hour (hover to see other rain measurements)
** Current wind speed in m/s (hover to see current wind gust speed)